Showing default

LANDSAT 9, 49260

Orbit data source: Space-Track

LANDSAT 9, 49260 is an American payload satellite in SSO that was launched on Mon, 27 Sep 2021 UTC via an ATLAS V 401 launch vehicle from the Air Force Western Test Range (AFWTR). Payload-class satellites include a variety of spacecraft equipped with specific instruments for various scientific and technological missions. These include communications satellites like Starlink; space stations such as the ISS; scientific satellites like the Hubble; Earth observation satellites from companies like Planet Labs, Umbra, and HawkEye 360; GPS; miniature CubeSats for education and research; and military/defense satellites.

Loading next visibility...
Identifier
49260, 2021-088A
Orbit
SSO
Country
Flag of USUS
Related business
Manufacturer
NGIS SSG Gilbert
Mission
Operational Civil Imaging
Bus & Motor
LEOSTAR-3, Unknown motor
Mass
2,710 kg wet, 2,390 kg dry
Launch date (UTC)
2021-09-27 (5 years ago)
Launch vehicle
ATLAS V 401
Launch site
Air Force Western Test Range (AFWTR)
Object type
Payload
Rocket body
Debris
Shape & HBR
Hex Cyl + 1 Pan, 10.9 m
Radar Cross Section
17.735 m², Large (>1 m²)

Expand to show TLE details & history
Last TLE update: 12 hours ago

TLE from 12 hours ago
0 LANDSAT 9
1 49260U 21088A   26093.75910960  .00000686  00000-0  16228-3 0  9999
2 49260  98.1896 165.1349 0001186  97.2898 262.8435 14.57124323240167
Epoch: 2026-04-03T18:13Z
TLE epoch observation values (Epoch: 2026-04-03T18:13:07.069Z)
Latitude
-0.00006°
Longitude
59.76682°
Altitude
705.561 km
Speed
7.503 km/s
True Right ascension
11h 00m 32s
True Declination
0° 00' 00"
Sunlit
Object was in full shadow at epoch
Visualization orbit readout
Latitude
Unknown
Longitude
Unknown
Altitude
Unknown
Speed
Unknown
Apparent Right ascension
Unknown
Apparent Declination
Unknown
Sunlit
N/A
Visualization observer readout
Local Sidereal Time
12:19:55
Azimuth
Unknown
Elevation
Unknown
Doppler factor
Unknown
Orbital elements
Apogee altitude
700.399 km
Perigee altitude
698.72 km
Semi-major axis
7,077.696 km
Eccentricity
0.00012
Inclination
98.1896°
RAAN
165.1349°
Arg. of periapsis
97.2898°
True anomaly
262.83002°
Mean anomaly
262.8435°
Eccentric anomaly
262.83676°
Mean motion
3.64507 °/min
Orbital period
98.76 mins
BSTAR
0.00016228
Loading maneuver chart data...
Computing Atmospheric mass density...
Loading historical data...
Loading historical data...
Loading historical data...
Loading historical data...
Loading historical data...
Loading historical data...
Loading historical data...
Other satellites on launch #88 in the year 2021 (2021-09-27 UTC)

Documentation

Showing up to 5 results
|